Tracking 18628 objects as of 24-April-2017
HD Live streaming from Space Station
objects crossing your sky now

TRITON 1

Track TRITON 1 now!
10-day predictions
TRITON 1 is classified as:


NORAD ID: 39427
Int'l Code: 2013-066M
Perigee: 595.4 km
Apogee: 757.5 km
Inclination: 97.6 °
Period: 98.1 minutes
Semi major axis: 7047 km
RCS: Unknown
Launch date: November 21, 2013
Source: United Kingdom (UK)
Launch site: Orenburg, Russia (OREN)
Uplink (MHz): 435.xxx
Downlink (MHz): 145.818/145.823
Beacon (MHz): 2408.000
Mode: 1200bps RC-BPSK CW
Call sign: TRIV0 TRIV1
Status: Inactive

Your satellite tracking list
Your tracking list is empty





NASA's NSSDC Master Catalog

Two Line Element Set (TLE):
1 39427U 13066M   17113.84521347 +.00000511 +00000-0 +89625-4 0  9999
2 39427 097.6411 132.8372 0114971 162.1249 198.4053 14.67426444182888
Source of the keplerian elements: Caltech